Retour au catalogue

RUBIN 9.1/RUBIN 9.2/PSLV

ActifRadio amateurSSO
NORAD 35936·PAYLOAD·🇩🇪 Germany

Lancé Sep 23, 2009 depuis Satish Dhawan Space Centre

Loading…

Prochains Passages (prochaines 24 heures)

TLE

FraisSource: Space-Track

Époque: Sep 14, 2026, 05:42 UTC

1 35936U 09051F   26257.23791389  .00000109  00000-0  44302-4 0  9992
2 35936  98.3031 178.2396 0054018 149.5626 210.8720 14.43590922893389

Suivez RUBIN 9.1/RUBIN 9.2/PSLV en temps réel avec AllMySat

Download on the App Store